O3B FM16

Last updated on Sat Jul 18 2026 00:03:21 GMT+0000 (Coordinated Universal Time)

1 43232U 18024B 26198.52847581 -.00000025 00000+0 00000+0 0 9991 2 43232 0.0535 3.8907 0002611 109.6586 246.4741 5.00115985152450
UTC large
Height (km)
Speed (km/s)
/
Latitude / Longitude
Inclination (degrees)
Orbital Period (minutes)
Azimuth
Elevation
Range (km)
Doppler Factor

Next 0 passes for location: London (51.5072 / 0.1276)

No passes found over London.
O3B FM16